Regional Weather Roundup
Issued by NWS Newport/Morehead, NC

Current Version | Previous Version | Graphics & Text | Print | Product List | Glossary Off
Versions: 1 2 3 4 5 6 7 8 9 10 11 12 13 14 15 16 17 18 19 20 21 22 23 24 25 26 27 28 29 30 31 32 33 34 35 36 37 38 39 40 41 42 43 44 45 46 47 48 49 50

000
ASUS42 KMHX 052225
RWRMHX
WEATHER ROUNDUP FOR EASTERN NORTH CAROLINA
NATIONAL WEATHER SERVICE NEWPORT/MOREHEAD CITY NC
600 PM EDT SUN JUL 05 2015

NOTE: "FAIR" INDICATES FEW OR NO CLOUDS BELOW 12,000 FEET
WITH NO SIGNIFICANT WEATHER AND/OR OBSTRUCTIONS TO VISIBILITY

NCZ015>017-031-032-045>047-102-103-052300-
NORTH COAST

CITY           SKY/WX    TMP DP  RH WIND       PRES   REMARKS
EDENTON          N/A     85  74  67 S8        30.07S
ELIZABETH CITY PTSUNNY   83  76  79 NE9       30.07F
KITTY HAWK     PTCLDY    88  73  61 S8        30.07S
MANTEO         MOSUNNY   84  73  70 S14       30.08S

$$

NCZ045>047-081-094-103-104-052300-
CENTRAL COAST

CITY           SKY/WX    TMP DP  RH WIND       PRES   REMARKS
FRISCO         SUNNY     81  75  82 SW7       30.10F
SWANQUARTER      N/A     88 N/A N/A S12       30.03S

$$

NCZ095-097-098-100-101-052300-
SOUTHERN COAST

CITY           SKY/WX    TMP DP  RH WIND       PRES   REMARKS
BEAUFORT       SUNNY     83  74  74 SW15      30.10S
CEDAR ISLAND     N/A     88 N/A N/A S13       30.12S
JACKSONVILLE   SUNNY     86  71  60 S12G20    30.07F
PINEY ISLAND   CLEAR    N/A N/A N/A SW13      30.09S
WILMINGTON     MOSUNNY   87  73  62 S12       30.08S


$$

NCZ011>013-027>030-043-044-078>080-089-090>093-098-052300-
COASTAL PLAIN

CITY           SKY/WX    TMP DP  RH WIND       PRES   REMARKS
AHOSKIE        MOSUNNY  N/A N/A N/A NW6       30.08R
CLINTON        MOSUNNY   90  73  56 S6        30.06F
ELIZABETHTOWN  MOSUNNY   89  72  57 S8        30.07S
GOLDSBORO      MOSUNNY   90  72  55 S9        30.03F
GREENVILLE     MOSUNNY   90  70  51 SW8       30.07F
HAVELOCK       SUNNY     86  67  52 S10       30.10S
KENANSVILLE    SUNNY     89  66  46 S3        30.07S
KINSTON        SUNNY     91  66  43 S8        30.07S
NEW BERN       SUNNY     87  70  56 S8G18     30.09S
RICHLANDS      SUNNY     90  70  51 S12       30.07F
ROCKY MOUNT    MOSUNNY   87  71  58 S8        30.05F
WASHINGTON     MOSUNNY   88  72  58 S8        30.06F
WHITEVILLE     SUNNY     87  74  63 S12       30.07S

$$

AMZ130-135-150-152-154-156-158-170-250-252-270-ANZ085-086-088-633-658-670-052300-
MARINE OBSERVATIONS

STATION/POSITION TIME  TEMP    WIND        PRES    WAVE   SWELL
                       AIR SEA DIR/SP/G            HT/PER HT/PER
                 (UTC) (F)     (DEG/KT/KT) (MB)    (FT/S) (FT/S)
CHESAPEAKE LIGHT 2200   76     110/ 10/ 11 1019.6
64 E VA BEACH    2150   78 78  110/  6/  8 1019.2    4/ 6   3/ 6
DUCK             2200   82 80  110/ 13/ 15   N/A
2 E DUCK         2111      79                N/A     2/ 9
OREGON INLET     2200   81 81  190/ 15/ 17 1018.9
13E OREGON INLT  2200      78                N/A     3/ 9   2/14
HATTERAS CG      2200   81 80  180/  4/ 10 1019.1
DIAMOND BUOY     2150   81 81  220/ 12/ 14 1019.3    3/ 5   2/ 9
CAPE LOOKOUT     2200   82     220/  7/ 10 1019.2
BEAUFORT LAB     2200   83 83  210/  7/  9 1018.6
30 SE NEW RVR IN NOT AVBL
27 SE WRIGHTSVLE 2200      81  230/ 14/ 16   N/A
5 SE WRIGHTSVLE  2108   80 80  210/ 12/ 16 1019.1
225 S CAPE HAT   2150   81 80  190/ 10/ 12 1022.0    4/ 8   3/ 8
41 SE CHARLESTON 2150   82 83  200/ 14/ 16 1019.5    3/ 9   2/ 9

$$



USA.gov is the U.S. government's official web portal to all federal, state and local government web resources and services.